PPCOA SBFZ-SBPS

Flight info

Callsign PPCOA
Flight time 2h 4m
Altitude 38000
Route UGEPO UZ19 DABAD DCT SVD DCT VUREK UZ73 DAKEN DCT RAIRA
Aircraft CL60/M-SBDE1E2E3FGHIJ4J5J7M3RWXYZ/LB1V1D1

Departure

Time 2026-04-21 19:29
Airport Pinto Martins International Airport (SBFZ)

Arrival

Time 2026-04-21 21:33
Airport Porto Seguro International Airport (SBPS)
Time Latitude Longitude Altitude Speed Heading
2026-04-21 19:18 -3.77391 -38.53315 86 ft 0 kts 103°
2026-04-21 19:26 -3.77393 -38.53310 86 ft 3 kts 118°
2026-04-21 19:27 -3.77430 -38.53309 86 ft 8 kts 211°
2026-04-21 19:27 -3.77440 -38.53377 86 ft 13 kts 289°
2026-04-21 19:27 -3.77411 -38.53475 86 ft 15 kts 284°
2026-04-21 19:27 -3.77431 -38.53538 86 ft 12 kts 198°
2026-04-21 19:28 -3.77522 -38.53565 86 ft 13 kts 189°
2026-04-21 19:28 -3.77568 -38.53482 86 ft 35 kts 104°
2026-04-21 19:28 -3.77711 -38.52940 83 ft 122 kts 105°
2026-04-21 19:28 -3.77980 -38.51939 317 ft 164 kts 104°
2026-04-21 19:29 -3.78299 -38.50795 944 ft 182 kts 105°
2026-04-21 19:29 -3.78661 -38.49513 1595 ft 206 kts 104°
2026-04-21 19:29 -3.79089 -38.47983 1972 ft 244 kts 105°
2026-04-21 19:29 -3.79699 -38.46346 2608 ft 270 kts 122°
2026-04-21 19:30 -3.81177 -38.45066 3323 ft 294 kts 156°
2026-04-21 19:30 -3.83215 -38.44778 4292 ft 304 kts 187°
2026-04-21 19:30 -3.85279 -38.45337 5236 ft 314 kts 197°
2026-04-21 19:30 -3.87374 -38.46011 5762 ft 321 kts 197°
2026-04-21 19:31 -3.89498 -38.46683 5896 ft 320 kts 197°
2026-04-21 19:31 -3.91647 -38.47352 5907 ft 316 kts 196°
2026-04-21 19:31 -3.93737 -38.47992 5908 ft 314 kts 195°
2026-04-21 19:31 -3.95851 -38.48630 5913 ft 313 kts 195°
2026-04-21 19:32 -3.97957 -38.49128 5928 ft 316 kts 186°
2026-04-21 19:32 -4.00215 -38.49278 6577 ft 332 kts 181°
2026-04-21 19:32 -4.02506 -38.49382 7875 ft 328 kts 181°
2026-04-21 19:32 -4.04752 -38.49487 8979 ft 328 kts 181°
2026-04-21 19:33 -4.06292 -38.49560 9643 ft 330 kts 181°
2026-04-21 19:33 -4.09353 -38.49704 10864 ft 335 kts 181°
2026-04-21 19:33 -4.11697 -38.49813 11736 ft 339 kts 181°
2026-04-21 19:33 -4.14064 -38.49925 12565 ft 343 kts 181°
2026-04-21 19:34 -4.16468 -38.50037 13379 ft 347 kts 181°
2026-04-21 19:34 -4.18902 -38.50151 14187 ft 351 kts 181°
2026-04-21 19:34 -4.21340 -38.50266 14963 ft 355 kts 181°
2026-04-21 19:34 -4.23831 -38.50383 15744 ft 359 kts 181°
2026-04-21 19:35 -4.26302 -38.50498 16480 ft 362 kts 181°
2026-04-21 19:35 -4.31414 -38.50737 17878 ft 371 kts 181°
2026-04-21 19:35 -4.34031 -38.50859 18563 ft 375 kts 181°
2026-04-21 19:36 -4.36639 -38.50981 19203 ft 380 kts 181°
2026-04-21 19:36 -4.39302 -38.51105 19837 ft 384 kts 181°
2026-04-21 19:36 -4.41984 -38.51230 20459 ft 387 kts 181°
2026-04-21 19:36 -4.44680 -38.51323 21051 ft 391 kts 179°
2026-04-21 19:37 -4.47440 -38.51335 21638 ft 395 kts 179°
2026-04-21 19:37 -4.50180 -38.51342 22199 ft 399 kts 179°
2026-04-21 19:37 -4.52978 -38.51350 22753 ft 403 kts 179°
2026-04-21 19:37 -4.55799 -38.51358 23288 ft 407 kts 179°
2026-04-21 19:38 -4.58664 -38.51367 23849 ft 411 kts 179°
2026-04-21 19:38 -4.61531 -38.51375 24399 ft 415 kts 179°
2026-04-21 19:38 -4.64442 -38.51383 24935 ft 419 kts 179°
2026-04-21 19:38 -4.67376 -38.51392 25456 ft 422 kts 179°
2026-04-21 19:39 -4.70343 -38.51400 25971 ft 426 kts 179°
2026-04-21 19:39 -4.73335 -38.51408 26473 ft 430 kts 179°
2026-04-21 19:39 -4.76353 -38.51417 26962 ft 434 kts 179°
2026-04-21 19:39 -4.79413 -38.51426 27435 ft 438 kts 179°
2026-04-21 19:40 -4.82543 -38.51434 27915 ft 441 kts 179°
2026-04-21 19:40 -4.85656 -38.51443 28383 ft 445 kts 179°
2026-04-21 19:40 -4.88843 -38.51452 28849 ft 449 kts 179°
2026-04-21 19:40 -4.92002 -38.51460 29300 ft 452 kts 179°
2026-04-21 19:41 -4.95199 -38.51469 29739 ft 455 kts 179°
2026-04-21 19:41 -4.98376 -38.51478 30170 ft 458 kts 179°
2026-04-21 19:41 -5.01602 -38.51487 30598 ft 461 kts 179°
2026-04-21 19:41 -5.04833 -38.51495 31011 ft 464 kts 179°
2026-04-21 19:42 -5.08083 -38.51505 31404 ft 466 kts 179°
2026-04-21 19:42 -5.11343 -38.51485 31783 ft 469 kts 178°
2026-04-21 19:42 -5.14609 -38.51409 32146 ft 471 kts 178°
2026-04-21 19:42 -5.17917 -38.51330 32496 ft 473 kts 178°
2026-04-21 19:43 -5.21191 -38.51252 32812 ft 475 kts 178°
2026-04-21 19:43 -5.24536 -38.51172 33121 ft 477 kts 178°
2026-04-21 19:43 -5.27868 -38.51092 33419 ft 479 kts 178°
2026-04-21 19:43 -5.31198 -38.51012 33712 ft 480 kts 178°
2026-04-21 19:44 -5.34580 -38.50930 34043 ft 480 kts 178°
2026-04-21 19:44 -5.37916 -38.50850 34393 ft 478 kts 178°
2026-04-21 19:44 -5.41252 -38.50770 34749 ft 477 kts 178°
2026-04-21 19:44 -5.44534 -38.50691 35091 ft 475 kts 178°
2026-04-21 19:45 -5.47875 -38.50611 35437 ft 475 kts 178°
2026-04-21 19:45 -5.51161 -38.50531 35766 ft 474 kts 178°
2026-04-21 19:45 -5.54479 -38.50451 36090 ft 473 kts 178°
2026-04-21 19:45 -5.57784 -38.50371 36397 ft 473 kts 178°
2026-04-21 19:46 -5.61067 -38.50291 36675 ft 472 kts 178°
2026-04-21 19:46 -5.64350 -38.50212 36953 ft 472 kts 178°
2026-04-21 19:46 -5.67655 -38.50131 37216 ft 472 kts 178°
2026-04-21 19:46 -5.70941 -38.50050 37473 ft 471 kts 178°
2026-04-21 19:47 -5.74236 -38.49969 37708 ft 471 kts 178°
2026-04-21 19:47 -5.77508 -38.49889 37925 ft 471 kts 179°
2026-04-21 19:47 -5.80813 -38.49807 37995 ft 475 kts 179°
2026-04-21 19:48 -5.87472 -38.49644 37947 ft 476 kts 179°
2026-04-21 19:48 -5.94060 -38.49482 37973 ft 471 kts 179°
2026-04-21 19:49 -6.00651 -38.49320 37977 ft 470 kts 179°
2026-04-21 19:49 -6.07168 -38.49159 37993 ft 470 kts 179°
2026-04-21 19:50 -6.12651 -38.49024 38001 ft 470 kts 179°
2026-04-21 19:50 -6.20297 -38.48836 37978 ft 471 kts 179°
2026-04-21 19:51 -6.26894 -38.48673 37962 ft 470 kts 179°
2026-04-21 19:51 -6.33422 -38.48513 37952 ft 470 kts 179°
2026-04-21 19:52 -6.40005 -38.48351 37942 ft 470 kts 179°
2026-04-21 19:52 -6.46558 -38.48189 37942 ft 470 kts 179°
2026-04-21 19:53 -6.53069 -38.48029 37941 ft 470 kts 179°
2026-04-21 19:53 -6.59634 -38.47866 37936 ft 470 kts 179°
2026-04-21 19:54 -6.66198 -38.47702 37932 ft 471 kts 179°
2026-04-21 19:54 -6.72772 -38.47537 37928 ft 471 kts 179°
2026-04-21 19:55 -6.79319 -38.47373 37934 ft 471 kts 179°
2026-04-21 19:55 -6.85890 -38.47208 37951 ft 471 kts 179°
2026-04-21 19:56 -6.92459 -38.47043 37967 ft 471 kts 179°
2026-04-21 19:56 -6.99054 -38.46878 37982 ft 472 kts 179°
2026-04-21 19:57 -7.05626 -38.46713 37989 ft 472 kts 179°
2026-04-21 19:57 -7.12212 -38.46542 37991 ft 472 kts 179°
2026-04-21 19:58 -7.18828 -38.46366 37995 ft 472 kts 179°
2026-04-21 19:58 -7.25389 -38.46191 37999 ft 472 kts 179°
2026-04-21 19:59 -7.31990 -38.46016 38002 ft 472 kts 179°
2026-04-21 19:59 -7.38581 -38.45841 38005 ft 473 kts 179°
2026-04-21 20:00 -7.45179 -38.45693 38009 ft 473 kts 179°
2026-04-21 20:00 -7.51771 -38.45568 38012 ft 473 kts 179°
2026-04-21 20:01 -7.58358 -38.45441 38028 ft 473 kts 179°
2026-04-21 20:01 -7.64950 -38.45283 38041 ft 473 kts 179°
2026-04-21 20:02 -7.71558 -38.45123 38055 ft 474 kts 179°
2026-04-21 20:02 -7.78183 -38.44962 38059 ft 474 kts 179°
2026-04-21 20:03 -7.84792 -38.44803 38026 ft 474 kts 179°
2026-04-21 20:03 -7.91405 -38.44642 38000 ft 473 kts 179°
2026-04-21 20:04 -7.97982 -38.44482 37974 ft 473 kts 179°
2026-04-21 20:04 -8.04603 -38.44317 37962 ft 473 kts 179°
2026-04-21 20:05 -8.11224 -38.44152 37960 ft 474 kts 179°
2026-04-21 20:05 -8.17831 -38.43987 37955 ft 474 kts 179°
2026-04-21 20:06 -8.24458 -38.43822 37956 ft 475 kts 179°
2026-04-21 20:06 -8.31083 -38.43656 37972 ft 475 kts 179°
2026-04-21 20:07 -8.37707 -38.43489 37982 ft 475 kts 179°
2026-04-21 20:07 -8.44342 -38.43323 37976 ft 476 kts 179°
2026-04-21 20:08 -8.50947 -38.43156 37972 ft 475 kts 179°
2026-04-21 20:08 -8.57572 -38.42992 37974 ft 475 kts 179°
2026-04-21 20:09 -8.64200 -38.42828 37977 ft 476 kts 179°
2026-04-21 20:09 -8.70853 -38.42662 37978 ft 476 kts 179°
2026-04-21 20:10 -8.77513 -38.42497 37975 ft 476 kts 179°
2026-04-21 20:10 -8.84123 -38.42333 37961 ft 477 kts 179°
2026-04-21 20:11 -8.90791 -38.42168 37949 ft 477 kts 179°
2026-04-21 20:11 -8.97454 -38.42003 37937 ft 477 kts 179°
2026-04-21 20:12 -9.04101 -38.41837 37935 ft 478 kts 179°
2026-04-21 20:12 -9.10778 -38.41671 37937 ft 478 kts 179°
2026-04-21 20:13 -9.17497 -38.41504 37940 ft 479 kts 180°
2026-04-21 20:13 -9.24178 -38.41338 37941 ft 479 kts 180°
2026-04-21 20:14 -9.30877 -38.41171 37940 ft 480 kts 180°
2026-04-21 20:14 -9.37568 -38.41005 37941 ft 480 kts 180°
2026-04-21 20:15 -9.44270 -38.40837 37941 ft 481 kts 180°
2026-04-21 20:15 -9.51009 -38.40669 37941 ft 481 kts 180°
2026-04-21 20:16 -9.57713 -38.40501 37941 ft 481 kts 180°
2026-04-21 20:16 -9.64428 -38.40333 37944 ft 481 kts 180°
2026-04-21 20:17 -9.71134 -38.40166 37942 ft 482 kts 180°
2026-04-21 20:17 -9.77849 -38.39998 37944 ft 483 kts 180°
2026-04-21 20:18 -9.83488 -38.39860 37948 ft 483 kts 180°
2026-04-21 20:18 -9.91341 -38.39666 37952 ft 483 kts 180°
2026-04-21 20:19 -9.98076 -38.39500 37956 ft 483 kts 180°
2026-04-21 20:19 -10.04773 -38.39335 37960 ft 483 kts 180°
2026-04-21 20:20 -10.11505 -38.39169 37965 ft 483 kts 180°
2026-04-21 20:20 -10.18123 -38.39005 37970 ft 483 kts 180°
2026-04-21 20:21 -10.20999 -38.38934 37972 ft 483 kts 180°
2026-04-21 20:21 -10.24082 -38.38858 37981 ft 483 kts 180°
2026-04-21 20:22 -10.25485 -38.38830 37974 ft 481 kts 181°
2026-04-21 20:22 -10.30325 -38.39417 37414 ft 465 kts 196°
2026-04-21 20:22 -10.33408 -38.40431 36812 ft 463 kts 205°
2026-04-21 20:23 -10.36293 -38.41848 36210 ft 459 kts 212°
2026-04-21 20:23 -10.38940 -38.43578 35806 ft 448 kts 219°
2026-04-21 20:23 -10.41336 -38.45539 35620 ft 431 kts 225°
2026-04-21 20:23 -10.43436 -38.47601 35441 ft 416 kts 230°
2026-04-21 20:24 -10.45347 -38.49787 35035 ft 411 kts 234°
2026-04-21 20:24 -10.47117 -38.52076 34386 ft 414 kts 237°
2026-04-21 20:24 -10.48769 -38.54432 33743 ft 415 kts 239°
2026-04-21 20:24 -10.50359 -38.56863 33330 ft 409 kts 240°
2026-04-21 20:25 -10.51871 -38.59265 33054 ft 399 kts 241°
2026-04-21 20:25 -10.53339 -38.61623 32691 ft 391 kts 240°
2026-04-21 20:25 -10.54808 -38.63943 32121 ft 391 kts 240°
2026-04-21 20:25 -10.56339 -38.66259 31433 ft 394 kts 238°
2026-04-21 20:26 -10.57939 -38.68520 30866 ft 393 kts 236°
2026-04-21 20:26 -10.59629 -38.70696 30454 ft 388 kts 233°
2026-04-21 20:26 -10.61390 -38.72723 30039 ft 384 kts 230°
2026-04-21 20:26 -10.63288 -38.74640 29488 ft 392 kts 225°
2026-04-21 20:27 -10.65494 -38.76449 29131 ft 411 kts 213°
2026-04-21 20:27 -10.68204 -38.77481 29339 ft 423 kts 194°
2026-04-21 20:27 -10.71126 -38.77814 29707 ft 427 kts 183°
2026-04-21 20:27 -10.74112 -38.77573 30118 ft 429 kts 172°
2026-04-21 20:28 -10.77008 -38.76750 30624 ft 432 kts 160°
2026-04-21 20:28 -10.79710 -38.75395 31109 ft 437 kts 152°
2026-04-21 20:28 -10.82388 -38.73860 31543 ft 442 kts 152°
2026-04-21 20:28 -10.85094 -38.72314 31962 ft 447 kts 152°
2026-04-21 20:29 -10.87846 -38.70742 32361 ft 451 kts 152°
2026-04-21 20:29 -10.90590 -38.69175 32758 ft 456 kts 152°
2026-04-21 20:29 -10.93307 -38.67623 33148 ft 459 kts 152°
2026-04-21 20:29 -10.93782 -38.67352 33215 ft 460 kts 152°
2026-04-21 20:30 -10.95524 -38.66356 33458 ft 462 kts 152°
2026-04-21 20:30 -10.98331 -38.64752 33843 ft 464 kts 152°
2026-04-21 20:30 -11.01140 -38.63146 34286 ft 459 kts 152°
2026-04-21 20:30 -11.03887 -38.61574 34492 ft 451 kts 152°
2026-04-21 20:31 -11.06662 -38.59987 34614 ft 457 kts 152°
2026-04-21 20:31 -11.09454 -38.58390 34869 ft 462 kts 152°
2026-04-21 20:31 -11.12294 -38.56766 35230 ft 463 kts 152°
2026-04-21 20:31 -11.15181 -38.55115 35637 ft 461 kts 152°
2026-04-21 20:32 -11.17989 -38.53508 36025 ft 460 kts 152°
2026-04-21 20:32 -11.20825 -38.51886 36405 ft 460 kts 152°
2026-04-21 20:32 -11.23619 -38.50286 36781 ft 460 kts 152°
2026-04-21 20:32 -11.26406 -38.48690 37140 ft 460 kts 152°
2026-04-21 20:33 -11.29191 -38.47095 37481 ft 461 kts 152°
2026-04-21 20:33 -11.32011 -38.45480 37806 ft 461 kts 152°
2026-04-21 20:33 -11.34823 -38.43869 38037 ft 464 kts 152°
2026-04-21 20:33 -11.37660 -38.42244 38101 ft 468 kts 152°
2026-04-21 20:34 -11.43338 -38.38994 38134 ft 465 kts 153°
2026-04-21 20:34 -11.46207 -38.37589 38005 ft 456 kts 160°
2026-04-21 20:34 -11.49253 -38.36536 38012 ft 458 kts 167°
2026-04-21 20:35 -11.55584 -38.35563 37983 ft 459 kts 181°
2026-04-21 20:35 -11.61963 -38.35401 37995 ft 458 kts 182°
2026-04-21 20:36 -11.68407 -38.35240 38007 ft 465 kts 182°
2026-04-21 20:36 -11.74930 -38.35077 37998 ft 470 kts 182°
2026-04-21 20:37 -11.81515 -38.34911 37993 ft 470 kts 182°
2026-04-21 20:37 -11.88063 -38.34745 37997 ft 470 kts 182°
2026-04-21 20:38 -11.94655 -38.34579 37969 ft 468 kts 182°
2026-04-21 20:38 -12.01153 -38.34415 37942 ft 465 kts 181°
2026-04-21 20:39 -12.07653 -38.34235 37916 ft 466 kts 182°
2026-04-21 20:39 -12.14187 -38.34079 37965 ft 466 kts 182°
2026-04-21 20:40 -12.20670 -38.33917 37993 ft 468 kts 182°
2026-04-21 20:40 -12.27221 -38.33752 37988 ft 469 kts 182°
2026-04-21 20:41 -12.33759 -38.33586 37981 ft 468 kts 182°
2026-04-21 20:41 -12.40245 -38.33770 37983 ft 462 kts 193°
2026-04-21 20:42 -12.46415 -38.35409 37978 ft 456 kts 204°
2026-04-21 20:42 -12.52424 -38.37592 37977 ft 459 kts 197°
2026-04-21 20:43 -12.57263 -38.38142 38086 ft 454 kts 181°
2026-04-21 20:43 -12.63338 -38.37093 38070 ft 437 kts 168°
2026-04-21 20:44 -12.69207 -38.35469 38041 ft 435 kts 168°
2026-04-21 20:44 -12.75125 -38.33924 37985 ft 444 kts 168°
2026-04-21 20:45 -12.81240 -38.32468 37963 ft 457 kts 169°
2026-04-21 20:45 -12.87654 -38.31949 37956 ft 463 kts 180°
2026-04-21 20:46 -12.94054 -38.32605 37957 ft 465 kts 192°
2026-04-21 20:46 -13.00477 -38.33899 37958 ft 470 kts 192°
2026-04-21 20:47 -13.06898 -38.35174 37959 ft 471 kts 192°
2026-04-21 20:47 -13.13361 -38.36449 37963 ft 470 kts 192°
2026-04-21 20:48 -13.19785 -38.37710 37959 ft 469 kts 192°
2026-04-21 20:48 -13.26198 -38.38965 37958 ft 468 kts 192°
2026-04-21 20:49 -13.32606 -38.40216 37961 ft 468 kts 192°
2026-04-21 20:49 -13.39018 -38.41465 37964 ft 467 kts 192°
2026-04-21 20:50 -13.45421 -38.42712 37962 ft 466 kts 192°
2026-04-21 20:50 -13.51763 -38.43945 37964 ft 465 kts 191°
2026-04-21 20:51 -13.58131 -38.45184 37965 ft 463 kts 192°
2026-04-21 20:51 -13.64456 -38.46414 37963 ft 462 kts 192°
2026-04-21 20:52 -13.70794 -38.47646 37965 ft 462 kts 192°
2026-04-21 20:52 -13.77143 -38.48881 37965 ft 460 kts 191°
2026-04-21 20:53 -13.83427 -38.50103 37967 ft 459 kts 191°
2026-04-21 20:53 -13.89664 -38.51364 37968 ft 457 kts 195°
2026-04-21 20:54 -13.95745 -38.53282 37969 ft 457 kts 198°
2026-04-21 20:54 -14.01844 -38.55253 37973 ft 457 kts 198°
2026-04-21 20:55 -14.07935 -38.57222 37968 ft 457 kts 198°
2026-04-21 20:55 -14.14016 -38.59186 37964 ft 457 kts 197°
2026-04-21 20:56 -14.20122 -38.61159 37958 ft 456 kts 197°
2026-04-21 20:56 -14.26143 -38.63104 37954 ft 455 kts 197°
2026-04-21 20:57 -14.32228 -38.65071 37954 ft 454 kts 198°
2026-04-21 20:57 -14.38323 -38.67042 37951 ft 454 kts 198°
2026-04-21 20:58 -14.44352 -38.68992 37956 ft 454 kts 197°
2026-04-21 20:58 -14.50418 -38.70955 37960 ft 454 kts 197°
2026-04-21 20:59 -14.56452 -38.72908 37956 ft 454 kts 197°
2026-04-21 20:59 -14.59486 -38.73891 37831 ft 457 kts 197°
2026-04-21 20:59 -14.62549 -38.74883 37287 ft 461 kts 197°
2026-04-21 21:00 -14.65573 -38.75862 36744 ft 457 kts 197°
2026-04-21 21:00 -14.68630 -38.76852 36191 ft 456 kts 196°
2026-04-21 21:00 -14.71630 -38.77823 35637 ft 455 kts 196°
2026-04-21 21:00 -14.74665 -38.78806 35039 ft 455 kts 196°
2026-04-21 21:01 -14.77675 -38.79782 34442 ft 455 kts 195°
2026-04-21 21:01 -14.80737 -38.80774 33832 ft 456 kts 195°
2026-04-21 21:01 -14.83780 -38.81760 33230 ft 457 kts 195°
2026-04-21 21:01 -14.86773 -38.82731 32645 ft 454 kts 195°
2026-04-21 21:02 -14.89814 -38.83718 32022 ft 451 kts 195°
2026-04-21 21:02 -14.92794 -38.84686 31434 ft 446 kts 195°
2026-04-21 21:02 -14.95715 -38.85635 30853 ft 442 kts 195°
2026-04-21 21:02 -14.98644 -38.86586 30269 ft 437 kts 195°
2026-04-21 21:03 -15.01535 -38.87525 29697 ft 433 kts 195°
2026-04-21 21:03 -15.04391 -38.88453 29129 ft 428 kts 196°
2026-04-21 21:03 -15.07212 -38.89370 28566 ft 424 kts 196°
2026-04-21 21:03 -15.10008 -38.90278 28002 ft 420 kts 196°
2026-04-21 21:04 -15.12824 -38.91194 27438 ft 416 kts 196°
2026-04-21 21:04 -15.15568 -38.92086 26889 ft 413 kts 196°
2026-04-21 21:04 -15.18273 -38.93039 26352 ft 410 kts 198°
2026-04-21 21:04 -15.20969 -38.94054 25821 ft 406 kts 198°
2026-04-21 21:05 -15.23592 -38.95041 25304 ft 403 kts 198°
2026-04-21 21:05 -15.26237 -38.96037 24772 ft 409 kts 198°
2026-04-21 21:05 -15.28951 -38.97057 24223 ft 417 kts 198°
2026-04-21 21:05 -15.31689 -38.98089 23663 ft 418 kts 198°
2026-04-21 21:06 -15.34426 -38.99121 23105 ft 416 kts 198°
2026-04-21 21:06 -15.36912 -39.00059 22604 ft 412 kts 197°
2026-04-21 21:06 -15.39599 -39.01071 22061 ft 409 kts 198°
2026-04-21 21:06 -15.42275 -39.02082 21513 ft 406 kts 198°
2026-04-21 21:07 -15.44926 -39.03083 20976 ft 403 kts 198°
2026-04-21 21:07 -15.47557 -39.04077 20441 ft 401 kts 199°
2026-04-21 21:07 -15.50169 -39.05064 19912 ft 400 kts 199°
2026-04-21 21:07 -15.52787 -39.06052 19385 ft 397 kts 199°
2026-04-21 21:08 -15.55363 -39.07026 18857 ft 396 kts 200°
2026-04-21 21:08 -15.57968 -39.08011 18324 ft 394 kts 200°
2026-04-21 21:08 -15.60541 -39.08984 17807 ft 393 kts 201°
2026-04-21 21:08 -15.63091 -39.09917 17269 ft 391 kts 199°
2026-04-21 21:09 -15.65711 -39.10681 16774 ft 388 kts 196°
2026-04-21 21:09 -15.68332 -39.11411 16272 ft 386 kts 196°
2026-04-21 21:09 -15.70897 -39.12127 15791 ft 383 kts 196°
2026-04-21 21:09 -15.73485 -39.12851 15265 ft 380 kts 196°
2026-04-21 21:10 -15.76012 -39.13557 14766 ft 377 kts 196°
2026-04-21 21:10 -15.78539 -39.14265 14271 ft 374 kts 196°
2026-04-21 21:10 -15.81054 -39.14968 13765 ft 372 kts 195°
2026-04-21 21:10 -15.83534 -39.15663 13266 ft 369 kts 195°
2026-04-21 21:11 -15.86020 -39.16360 12782 ft 367 kts 195°
2026-04-21 21:11 -15.88489 -39.17051 12288 ft 365 kts 195°
2026-04-21 21:11 -15.90918 -39.17733 11804 ft 362 kts 195°
2026-04-21 21:11 -15.93369 -39.18420 11322 ft 360 kts 194°
2026-04-21 21:12 -15.95762 -39.19091 10848 ft 356 kts 194°
2026-04-21 21:12 -15.98138 -39.19758 10389 ft 346 kts 194°
2026-04-21 21:12 -16.00435 -39.20403 9925 ft 336 kts 194°
2026-04-21 21:12 -16.02669 -39.21030 9487 ft 327 kts 194°
2026-04-21 21:13 -16.04827 -39.21636 9065 ft 319 kts 194°
2026-04-21 21:13 -16.06962 -39.22236 8635 ft 312 kts 194°
2026-04-21 21:13 -16.09050 -39.22822 8221 ft 305 kts 194°
2026-04-21 21:13 -16.11098 -39.23398 7831 ft 299 kts 194°
2026-04-21 21:14 -16.13100 -39.23960 7425 ft 293 kts 194°
2026-04-21 21:14 -16.15051 -39.24509 7045 ft 288 kts 193°
2026-04-21 21:14 -16.16976 -39.25050 6662 ft 282 kts 193°
2026-04-21 21:14 -16.18861 -39.25580 6295 ft 277 kts 194°
2026-04-21 21:15 -16.20709 -39.26100 5925 ft 273 kts 194°
2026-04-21 21:15 -16.22530 -39.26612 5600 ft 269 kts 193°
2026-04-21 21:15 -16.24336 -39.27120 5385 ft 268 kts 193°
2026-04-21 21:15 -16.26168 -39.27636 5237 ft 270 kts 193°
2026-04-21 21:16 -16.27978 -39.28145 4971 ft 272 kts 193°
2026-04-21 21:16 -16.29804 -39.28659 4726 ft 265 kts 193°
2026-04-21 21:16 -16.31541 -39.29150 4490 ft 255 kts 193°
2026-04-21 21:16 -16.33238 -39.29629 4263 ft 246 kts 193°
2026-04-21 21:17 -16.34857 -39.30086 4045 ft 238 kts 192°
2026-04-21 21:17 -16.36434 -39.30531 3834 ft 230 kts 192°
2026-04-21 21:17 -16.37962 -39.30962 3616 ft 223 kts 192°
2026-04-21 21:17 -16.39452 -39.31344 3417 ft 214 kts 183°
2026-04-21 21:18 -16.40878 -39.31165 3216 ft 203 kts 155°
2026-04-21 21:18 -16.42067 -39.30404 3031 ft 197 kts 143°
2026-04-21 21:18 -16.43158 -39.29589 2858 ft 188 kts 143°
2026-04-21 21:18 -16.44199 -39.28820 2691 ft 178 kts 142°
2026-04-21 21:19 -16.45193 -39.28085 2524 ft 176 kts 142°
2026-04-21 21:19 -16.46197 -39.27342 2357 ft 175 kts 142°
2026-04-21 21:19 -16.47196 -39.26601 2201 ft 174 kts 143°
2026-04-21 21:19 -16.48035 -39.25732 2028 ft 169 kts 119°
2026-04-21 21:20 -16.48246 -39.24577 1983 ft 164 kts 87°
2026-04-21 21:20 -16.47988 -39.23402 1987 ft 168 kts 77°
2026-04-21 21:20 -16.47660 -39.22229 1993 ft 169 kts 78°
2026-04-21 21:20 -16.47337 -39.21041 1980 ft 169 kts 79°
2026-04-21 21:21 -16.47020 -39.19864 1986 ft 169 kts 79°
2026-04-21 21:21 -16.46701 -39.18678 1988 ft 170 kts 78°
2026-04-21 21:21 -16.46382 -39.17495 1814 ft 171 kts 79°
2026-04-21 21:21 -16.46075 -39.16371 1629 ft 145 kts 79°
2026-04-21 21:22 -16.45820 -39.15438 1462 ft 130 kts 78°
2026-04-21 21:22 -16.45586 -39.14534 1277 ft 128 kts 77°
2026-04-21 21:22 -16.45348 -39.13647 1119 ft 127 kts 81°
2026-04-21 21:22 -16.45107 -39.12749 914 ft 133 kts 79°
2026-04-21 21:23 -16.44858 -39.11830 769 ft 130 kts 78°
2026-04-21 21:23 -16.44656 -39.11069 726 ft 123 kts 78°
2026-04-21 21:23 -16.44438 -39.10330 410 ft 145 kts 75°
2026-04-21 21:23 -16.44176 -39.09365 681 ft 138 kts 76°
2026-04-21 21:24 -16.43892 -39.08268 683 ft 174 kts 76°
2026-04-21 21:24 -16.43526 -39.06915 1167 ft 215 kts 76°
2026-04-21 21:24 -16.43138 -39.05468 2661 ft 217 kts 77°
2026-04-21 21:24 -16.42734 -39.03968 3570 ft 218 kts 76°
2026-04-21 21:25 -16.42002 -39.02594 3963 ft 224 kts 46°
2026-04-21 21:25 -16.40582 -39.01962 4072 ft 228 kts
2026-04-21 21:25 -16.39025 -39.02244 4076 ft 227 kts 340°
2026-04-21 21:25 -16.37695 -39.03112 4081 ft 227 kts 318°
2026-04-21 21:26 -16.36760 -39.04442 4081 ft 228 kts 295°
2026-04-21 21:26 -16.36538 -39.05040 4078 ft 227 kts 286°
2026-04-21 21:26 -16.36369 -39.05975 4079 ft 226 kts 273°
2026-04-21 21:27 -16.36494 -39.07588 4080 ft 224 kts 258°
2026-04-21 21:27 -16.36757 -39.09172 4063 ft 217 kts 258°
2026-04-21 21:27 -16.37003 -39.10694 3727 ft 212 kts 258°
2026-04-21 21:27 -16.37247 -39.12203 3316 ft 211 kts 258°
2026-04-21 21:28 -16.37490 -39.13705 2923 ft 209 kts 258°
2026-04-21 21:28 -16.37728 -39.15179 2579 ft 202 kts 257°
2026-04-21 21:28 -16.38459 -39.17844 1982 ft 178 kts 225°
2026-04-21 21:29 -16.39457 -39.18552 1977 ft 175 kts 194°
2026-04-21 21:29 -16.40652 -39.18653 1986 ft 169 kts 169°
2026-04-21 21:29 -16.41789 -39.18384 1986 ft 165 kts 161°
2026-04-21 21:29 -16.42912 -39.18088 1993 ft 166 kts 162°
2026-04-21 21:30 -16.44021 -39.17807 1986 ft 164 kts 162°
2026-04-21 21:30 -16.45141 -39.17526 1983 ft 165 kts 164°
2026-04-21 21:30 -16.46270 -39.17243 1981 ft 164 kts 164°
2026-04-21 21:30 -16.47312 -39.16826 1972 ft 162 kts 141°
2026-04-21 21:31 -16.47708 -39.15845 1955 ft 139 kts 84°
2026-04-21 21:31 -16.47147 -39.15080 1916 ft 135 kts 50°
2026-04-21 21:31 -16.46454 -39.14399 1744 ft 138 kts 51°
2026-04-21 21:31 -16.45822 -39.13647 1530 ft 136 kts 58°
2026-04-21 21:32 -16.45309 -39.12812 1256 ft 136 kts 67°
2026-04-21 21:32 -16.44923 -39.11908 902 ft 137 kts 72°
2026-04-21 21:32 -16.44610 -39.10966 683 ft 138 kts 77°
2026-04-21 21:32 -16.44372 -39.10005 460 ft 135 kts 77°
2026-04-21 21:33 -16.44126 -39.09075 237 ft 132 kts 74°
2026-04-21 21:33 -16.43887 -39.08208 166 ft 111 kts 75°
2026-04-21 21:33 -16.43724 -39.07604 156 ft 38 kts 73°
2026-04-21 21:33 -16.43700 -39.07455 154 ft 6 kts 59°
2026-04-21 21:34 -16.43684 -39.07494 154 ft 15 kts 240°
2026-04-21 21:34 -16.43730 -39.07622 156 ft 15 kts 252°
2026-04-21 21:34 -16.43804 -39.07654 156 ft 12 kts 161°
2026-04-21 21:34 -16.43847 -39.07612 156 ft 8 kts 65°
2026-04-21 21:35 -16.43830 -39.07571 155 ft 2 kts 115°
2026-04-21 21:35 -16.43834 -39.07568 155 ft 0 kts 159°